sat.trackr.live / text

‹ back to catalog

BEIDOU-3 M7 (C27)

NORAD 43107 · 2018-003A

PAYLOAD ACTIVE UNKNOWN

§ Identity

Operator
Country
PRC
Launch date
2018-01-11
Launch site
XICLF
Launch vehicle
Mass (kg)
RCS (m²)

Purposes: nav

External: N2YO · Heavens-Above · Gunter

§ Orbital elements

Epoch: 2026-09-10T04:34:00.743232Z

Period
773.25 min
Inclination
54.2491°
Eccentricity
0.0003170
Mean motion
1.86227906 rev/d
Perigee alt
21,519.5 km
Apogee alt
21,537.2 km
Semi-major
27,906.5 km
B*
0.0000e+0
RAAN
299.3446°
Arg perigee
105.8365°
Mean anomaly
254.2708°
Rev number
5,893

§ Raw data

BEIDOU-3 M7 (C27)1 43107U 18003A   26253.19028638 -.00000043  00000+0  00000+0 0  99982 43107  54.2491 299.3446 0003170 105.8365 254.2708  1.86227906 58932

JSON: /api/v1/satellites/43107 · /tle

For live sub-satellite position, see the globe view (requires WebGL).

§ Visibility from observer

Set your observer location to see the next 7 days of passes ≥ 10°. The values pass through the URL so the page stays shareable.

No JS? Fill the form by hand. The geolocation button needs JavaScript.